Location: Çayiçi
(36.4667°N, 30.2333°E)
Time: 01:51:46
(UTC+00:00)

Cosmos 2278 Rocket - Pass Details

Date: 09 February 2023
Orbit: 841 x 845 km, 71.0° (Epoch: 01 April)

Event Time Altitude Azimuth Distance (km) Brightness Sun altitude
Rises 16:49:00 0° 347° (NNW) 3,409 5.4 -15.7°
Reaches altitude 10° 16:51:41 10° 356° (N) 2,470 4.6 -16.2°
Maximum altitude 16:56:50 35° 61° (ENE) 1,334 2.7 -17.3°
Enters shadow 16:58:36 29° 97° (E) 1,511 2.9 -17.6°
